Previsão horária em Alida

Hoje, 18 Janeiro, Segunda-feira

Tempo Temperatura Precipitação Vento Pressão Humidade
00:00 -10°C° 0.1 mm 1 m/s 706 mmHg 96%
01:00 -10°C° 0.1 mm 1 m/s 706 mmHg 96%
02:00 -13°C° 0.1 mm 2 m/s 706 mmHg 96%
03:00 -13°C° 0.1 mm 2 m/s 707 mmHg 95%
04:00 -14°C° 0.1 mm 2 m/s 708 mmHg 95%
05:00 -14°C° 0 mm 2 m/s 708 mmHg 97%
06:00 -15°C° 0 mm 2 m/s 708 mmHg 97%
07:00 -16°C° 0 mm 2 m/s 709 mmHg 96%
08:00 -17°C° 0 mm 2 m/s 710 mmHg 95%
09:00 -16°C° 0 mm 2 m/s 710 mmHg 94%
10:00 -16°C° 0 mm 2 m/s 711 mmHg 93%
11:00 -14°C° 0 mm 1 m/s 712 mmHg 91%
12:00 -15°C° 0 mm 2 m/s 712 mmHg 91%
13:00 -14°C° 0 mm 2 m/s 712 mmHg 91%
14:00 -15°C° 0 mm 3 m/s 712 mmHg 91%
15:00 -15°C° 0 mm 3 m/s 712 mmHg 92%
16:00 -15°C° 0 mm 3 m/s 712 mmHg 93%
17:00 -14°C° 0 mm 2 m/s 711 mmHg 94%
18:00 -13°C° 0.4 mm 2 m/s 711 mmHg 95%
19:00 -12°C° 0.4 mm 2 m/s 711 mmHg 95%
20:00 -9°C° 0.4 mm 1 m/s 711 mmHg 96%
21:00 -12°C° 0.1 mm 2 m/s 711 mmHg 95%
22:00 -12°C° 0.1 mm 2 m/s 711 mmHg 94%
23:00 -13°C° 0.1 mm 3 m/s 711 mmHg 94%

Amanhã, 19 Janeiro, Terça-feira

Tempo Temperatura Precipitação Vento Pressão Humidade
00:00 -13°C° 0 mm 3 m/s 712 mmHg 92%
01:00 -15°C° 0 mm 4 m/s 712 mmHg 91%
02:00 -16°C° 0 mm 4 m/s 713 mmHg 90%
03:00 -17°C° 0 mm 4 m/s 713 mmHg 90%
04:00 -17°C° 0 mm 4 m/s 714 mmHg 91%
05:00 -18°C° 0 mm 4 m/s 714 mmHg 92%
06:00 -19°C° 0 mm 4 m/s 715 mmHg 92%
07:00 -19°C° 0 mm 3 m/s 715 mmHg 93%
08:00 -21°C° 0 mm 3 m/s 715 mmHg 93%
09:00 -19°C° 0 mm 3 m/s 715 mmHg 92%
10:00 -18°C° 0 mm 3 m/s 715 mmHg 91%
11:00 -18°C° 0 mm 3 m/s 715 mmHg 90%
12:00 -17°C° 0 mm 3 m/s 714 mmHg 91%
13:00 -15°C° 0 mm 2 m/s 714 mmHg 92%
14:00 -14°C° 0 mm 2 m/s 713 mmHg 93%
15:00 -15°C° 0 mm 3 m/s 711 mmHg 94%
16:00 -15°C° 0 mm 3 m/s 710 mmHg 95%
17:00 -14°C° 0 mm 3 m/s 709 mmHg 95%
18:00 -12°C° 0 mm 3 m/s 708 mmHg 93%
19:00 -10°C° 0 mm 3 m/s 707 mmHg 91%
20:00 -9°C° 0 mm 4 m/s 705 mmHg 89%
21:00 -8°C° 0 mm 4 m/s 704 mmHg 86%
22:00 -6°C° 0 mm 5 m/s 703 mmHg 82%
23:00 -5°C° 0 mm 5 m/s 701 mmHg 79%

Depois de amanhã, 20 Janeiro, Quarta-feira

Tempo Temperatura Precipitação Vento Pressão Humidade
00:00 -5°C° 0 mm 6 m/s 700 mmHg 78%
01:00 -5°C° 0 mm 6 m/s 699 mmHg 77%
02:00 -5°C° 0 mm 6 m/s 698 mmHg 75%
03:00 -5°C° 0 mm 6 m/s 698 mmHg 80%
04:00 -6°C° 0 mm 7 m/s 697 mmHg 84%
05:00 -6°C° 0 mm 7 m/s 697 mmHg 88%
06:00 -6°C° 0 mm 8 m/s 698 mmHg 81%
07:00 -6°C° 0 mm 9 m/s 698 mmHg 74%
08:00 -6°C° 0 mm 9 m/s 699 mmHg 67%
09:00 -6°C° 0 mm 9 m/s 699 mmHg 71%
10:00 -6°C° 0 mm 9 m/s 699 mmHg 74%
11:00 -5°C° 0 mm 10 m/s 699 mmHg 77%
12:00 -7°C° 0 mm 10 m/s 699 mmHg 77%
13:00 -7°C° 0 mm 10 m/s 699 mmHg 77%
14:00 -8°C° 0 mm 10 m/s 699 mmHg 76%
15:00 -8°C° 0 mm 9 m/s 700 mmHg 79%
16:00 -9°C° 0 mm 9 m/s 700 mmHg 81%
17:00 -9°C° 0 mm 9 m/s 700 mmHg 83%
18:00 -10°C° 0 mm 8 m/s 700 mmHg 83%
19:00 -10°C° 0 mm 8 m/s 700 mmHg 82%
20:00 -9°C° 0 mm 7 m/s 700 mmHg 81%
21:00 -10°C° 0 mm 8 m/s 701 mmHg 83%
22:00 -10°C° 0 mm 8 m/s 701 mmHg 85%
23:00 -10°C° 0 mm 8 m/s 701 mmHg 87%

21 Janeiro, Quinta-feira

Tempo Temperatura Precipitação Vento Pressão Humidade
00:00 -11°C° 0 mm 8 m/s 702 mmHg 85%
01:00 -12°C° 0 mm 7 m/s 703 mmHg 83%
02:00 -13°C° 0 mm 7 m/s 704 mmHg 81%
03:00 -15°C° 0 mm 7 m/s 705 mmHg 83%
04:00 -16°C° 0 mm 6 m/s 706 mmHg 85%
05:00 -18°C° 0 mm 6 m/s 707 mmHg 87%
06:00 -19°C° 0 mm 5 m/s 708 mmHg 87%
07:00 -20°C° 0 mm 5 m/s 709 mmHg 88%
08:00 -21°C° 0 mm 5 m/s 710 mmHg 88%
09:00 -21°C° 0 mm 5 m/s 711 mmHg 87%
10:00 -21°C° 0 mm 5 m/s 712 mmHg 87%
11:00 -20°C° 0 mm 5 m/s 712 mmHg 86%
12:00 -20°C° 0 mm 5 m/s 712 mmHg 86%
13:00 -20°C° 0 mm 5 m/s 712 mmHg 87%
14:00 -18°C° 0 mm 4 m/s 713 mmHg 87%
15:00 -19°C° 0 mm 4 m/s 713 mmHg 89%
16:00 -18°C° 0 mm 3 m/s 713 mmHg 91%
17:00 -18°C° 0 mm 3 m/s 714 mmHg 94%
18:00 -19°C° 0 mm 3 m/s 714 mmHg 94%
19:00 -18°C° 0 mm 2 m/s 714 mmHg 94%
20:00 -19°C° 0 mm 2 m/s 714 mmHg 95%
21:00 -19°C° 0 mm 2 m/s 714 mmHg 95%
22:00 -19°C° 0 mm 2 m/s 714 mmHg 95%
23:00 -19°C° 0 mm 2 m/s 714 mmHg 95%

22 Janeiro, Sexta-feira

Tempo Temperatura Precipitação Vento Pressão Humidade
00:00 -20°C° 0 mm 2 m/s 714 mmHg 95%
01:00 -21°C° 0 mm 2 m/s 714 mmHg 95%
02:00 -23°C° 0 mm 2 m/s 714 mmHg 95%
03:00 -23°C° 0 mm 2 m/s 714 mmHg 95%
04:00 -25°C° 0 mm 3 m/s 714 mmHg 95%
05:00 -25°C° 0 mm 3 m/s 714 mmHg 94%
06:00 -25°C° 0 mm 3 m/s 714 mmHg 94%
07:00 -25°C° 0 mm 3 m/s 714 mmHg 94%
08:00 -26°C° 0 mm 3 m/s 714 mmHg 94%
09:00 -24°C° 0 mm 3 m/s 714 mmHg 93%
10:00 -23°C° 0 mm 3 m/s 714 mmHg 92%
11:00 -22°C° 0 mm 3 m/s 714 mmHg 91%
12:00 -22°C° 0 mm 3 m/s 714 mmHg 91%
13:00 -22°C° 0 mm 4 m/s 713 mmHg 91%
14:00 -22°C° 0 mm 4 m/s 713 mmHg 91%
15:00 -22°C° 0 mm 4 m/s 713 mmHg 92%
16:00 -22°C° 0 mm 3 m/s 713 mmHg 93%
17:00 -22°C° 0 mm 3 m/s 713 mmHg 94%
18:00 -22°C° 0 mm 3 m/s 713 mmHg 94%
19:00 -23°C° 0 mm 3 m/s 713 mmHg 94%
20:00 -23°C° 0 mm 3 m/s 713 mmHg 94%
21:00 -24°C° 0 mm 3 m/s 713 mmHg 94%
22:00 -25°C° 0 mm 3 m/s 714 mmHg 94%
23:00 -25°C° 0 mm 3 m/s 714 mmHg 94%

23 Janeiro, Sábado

Tempo Temperatura Precipitação Vento Pressão Humidade
00:00 -26°C° 0 mm 3 m/s 714 mmHg 94%
01:00 -25°C° 0 mm 2 m/s 714 mmHg 94%
02:00 -25°C° 0 mm 2 m/s 714 mmHg 93%
03:00 -26°C° 0 mm 2 m/s 714 mmHg 93%
04:00 -23°C° 0 mm 1 m/s 714 mmHg 92%
05:00 -23°C° 0 mm 1 m/s 715 mmHg 92%
06:00 -22°C° 0 mm 1 m/s 715 mmHg 92%
07:00 -22°C° 0 mm 1 m/s 715 mmHg 93%
08:00 -21°C° 0 mm 1 m/s 715 mmHg 94%
09:00 -21°C° 0.1 mm 1 m/s 715 mmHg 94%
10:00 -20°C° 0.1 mm 1 m/s 714 mmHg 94%
11:00 -21°C° 0.1 mm 2 m/s 714 mmHg 94%
12:00 -20°C° 0 mm 2 m/s 714 mmHg 95%
13:00 -20°C° 0 mm 2 m/s 713 mmHg 95%
14:00 -19°C° 0 mm 2 m/s 712 mmHg 95%
15:00 -19°C° 0 mm 2 m/s 712 mmHg 95%
16:00 -22°C° 0 mm 3 m/s 712 mmHg 95%
17:00 -22°C° 0 mm 3 m/s 711 mmHg 95%
18:00 -22°C° 0 mm 3 m/s 711 mmHg 94%
19:00 -21°C° 0 mm 3 m/s 711 mmHg 92%
20:00 -21°C° 0 mm 3 m/s 711 mmHg 91%
21:00 -21°C° 0 mm 3 m/s 710 mmHg 91%
22:00 -19°C° 0 mm 3 m/s 710 mmHg 90%
23:00 -19°C° 0 mm 3 m/s 709 mmHg 90%
Mostrar mais

Necessitamos do seu Consentimento

A Meteoprog e os seus Fornecedores de Serviços podem armazenar e aceder a dados pessoais como cookies, identificadores do dispositivo ou outras tecnologias semelhantes existentes no seu dispositivo e processar estes dados para personalizar conteúdos e anúncios, assim como funcionalidades nas redes sociais e análise de tráfego.

  • Armazenar e/ou aceder a informações no seu dispositivo

    Os cookies, identificadores do dispositivo ou outras informações podem ser armazenados ou acedidos no seu dispositivo, para os fins acima indicados.

  • Anúncios e conteúdos personalizados, medição de anúncios e conteúdos, dados sobre o público-alvo e desenvolvimento de produtos

    Os anúncios e os conteúdos podem ser personalizados com base num perfil. Podem ser adicionados dados adicionais para uma maior personalização dos anúncios e dos conteúdos. A eficácia dos anúncios e dos conteúdos pode ser medida. Podem ser obtidas informações sobre o público que visualizou os anúncios e os conteúdos. Estes dados podem ser usados para desenvolver ou melhorar sistemas, softwares ou a experiência do utilizador.

Ao clicar em "Eu concordo”, permitirá o uso de cookies, identificadores do dispositivo e web beacons mencionados ou outras tecnologias semelhantes. As configurações do navegador do seu dispositivo podem ser alteradas.

Para certos fins, podem ser invocados interesses legítimos ao invés de consentimento. Pode ler mais informação sobre este assunto na nossa Política de Privacidade e Cookies.